Dewpoint
53 53 58 59 60 61 61 59 60 59 61 61 62 62 61 62 62 61 62 60 60 60 60 60 60 61 61 61 61 61 60 60 58 59 61 62 62 62 61 60 60 58 57
53 53 58 59 60 61 62 60 60 60 61 61 62 62 62 61 61 61 61 61 60 59 60 59 60 61 61 61 61 60 60 60 59 58 60 61 60 60 59 59 58 56 54
53 51 58 58 60 60 61 59 61 60 60 61 61 61 62 62 61 61 61 60 60 60 59 60 60 60 60 60 60 60 60 62 60 59 58 58 57 57 56 57 57 54 53
51 50 57 57 58 59 60 61 61 61 60 60 61 61 62 62 62 62 62 61 61 60 60 60 60 60 60 60 60 60 60 59 58 58 57 56 54 55 53 53 55 57 54
52 51 56 57 57 58 60 60 61 61 61 60 60 62 63 63 63 62 62 62 61 61 61 61 61 61 60 60 61 60 59 58 56 56 55 54 54 55 52 54 55 55 54
52 51 54 54 58 58 57 59 59 59 60 57 56 56 58 59 54 56 61 62 61 61 60 61 60 59 58 56 56 56 57 56 54 54 53 53 53 54 54 55 55 53 52
52 52 52 53 58 56 55 55 55 58 56 56 55 53 54 53 51 53 57 62 62 61 59 59 59 58 56 57 51 50 51 51 53 53 52 52 52 54 54 53 53 53 53
48 50 51 52 56 55 55 54 55 57 55 54 53 50 45 43 48 51 53 61 60 59 58 57 56 55 55 52 52 53 53 55 54 58 55 55 55 56 56 57 55 54 54
44 46 49 49 53 55 55 54 56 55 56 54 51 48 45 40 45 50 57 58 57 57 56 54 56 53 48 49 53 52 52 47 42 43 43 41 39 43 49 52 51 47 45
42 42 47 49 51 53 56 56 57 56 56 55 53 48 46 40 38 44 53 56 54 50 47 51 49 47 43 47 51 51 50 48 43 42 43 39 36 39 41 43 47 40 41
42 41 42 49 51 53 58 58 57 58 56 55 54 52 48 41 37 37 42 53 51 50 47 44 47 41 42 45 50 53 50 49 46 45 50 50 52 52 47 49 46 44 44
42 42 41 49 50 56 57 58 58 57 56 56 54 54 54 46 41 36 38 41 42 47 47 44 40 38 40 38 38 36 40 42 43 44 47 50 50 51 52 50 46 45 47
42 44 44 48 49 57 56 57 56 56 57 54 55 53 55 52 43 38 36 42 43 48 44 44 37 37 38 36 36 36 40 41 43 48 50 48 47 45 45 45 45 45 42
44 47 47 45 52 55 56 56 55 55 54 51 52 51 52 53 46 37 36 41 40 39 41 38 36 35 35 35 27 24 31 41 45 49 46 45 44 42 42 43 40 41 41
47 49 45 44 52 53 54 55 54 54 52 52 50 50 50 52 51 40 37 41 45 42 38 35 32 24 26 37 44 38 41 44 47 45 42 40 40 39 39 41 41 41 40
49 49 46 44 52 51 53 53 43 45 45 45 45 48 48 47 44 40 39 40 42 43 46 45 44 42 38 41 43 47 50 47 42 40 40 40 40 39 38 39 39 37 35
48 48 47 44 50 50 51 52 50 43 40 39 40 40 44 42 42 39 38 39 39 40 45 48 47 47 47 47 49 45 42 42 42 42 42 44 41 40 39 36 36 36 36
51 45 48 47 45 49 49 50 50 47 44 43 39 39 38 39 40 38 37 38 40 40 42 44 45 49 51 47 44 42 42 43 44 44 43 43 41 37 36 36 36 35 35
50 48 46 47 47 45 48 48 49 47 45 45 42 38 36 36 37 37 37 38 38 40 44 43 47 49 45 43 43 42 43 43 43 45 42 39 39 38 38 36 35 33 33
48 45 45 46 47 46 45 46 46 46 46 45 43 41 38 38 39 39 40 43 41 41 42 46 47 45 44 44 43 42 41 42 41 38 39 39 39 38 37 36 35 34 34
49 47 44 48 45 47 47 45 45 43 44 44 46 42 36 39 40 40 40 44 42 42 46 47 43 43 44 43 40 41 41 38 38 38 39 38 37 36 37 36 35 35 34
50 49 48 47 49 49 49 50 47 44 42 44 45 43 34 39 40 40 40 41 45 50 46 45 45 45 42 40 40 37 35 36 39 39 38 38 36 36 37 35 35 34 33
52 50 49 47 47 44 49 50 52 49 45 44 44 46 40 40 42 42 42 46 49 47 47 46 44 40 40 39 36 36 36 37 37 37 36 38 35 35 36 34 32 31 32
51 52 50 48 47 49 49 53 49 47 47 47 45 44 45 42 42 44 48 47 46 47 46 44 42 39 37 37 38 38 38 38 38 38 37 36 34 33 31 29 31 31 29
50 53 53 51 50 49 51 53 53 51 50 47 45 43 43 45 46 47 47 47 45 42 40 38 38 38 37 36 35 35 33 33 36 36 38 34 30 28 26 28 28 27 25
51 51 52 54 53 52 52 54 55 52 50 48 47 47 47 46 47 47 46 40 39 39 38 38 38 38 37 36 33 32 32 32 33 33 36 29 25 23 23 24 23 23 23
Lifted_Index
2 1 1 0 -0 -0 0 0 0 -1 -1 -1 -2 -2 -2 -2 -1 -1 -1 -0 -0 0 -0 -0 -1 -1 -0 -0 0 1 1 2 2 1 1 1 1 1 1 1 1 2 3
2 1 1 0 -0 -0 -0 0 0 -1 -1 -1 -1 -2 -1 -1 -1 -1 -0 -0 0 0 0 -0 -0 -0 -0 0 1 1 1 2 2 1 1 1 1 1 1 1 1 2 3
2 2 1 0 -0 -0 -0 0 -0 -0 -1 -1 -1 -1 -1 -1 -1 -1 -0 0 1 1 1 0 0 0 0 1 1 1 2 2 2 2 1 1 1 1 1 2 2 2 2
2 2 1 1 1 0 -0 -0 -0 -0 -0 -1 -1 -1 -1 -1 -1 -1 -0 0 1 1 1 0 0 1 1 1 2 2 2 2 2 2 1 1 1 2 2 3 3 2 2
3 2 1 1 1 0 -0 -0 -0 -0 -0 -0 -1 -1 -1 -1 -1 -0 -0 0 1 1 1 1 1 1 1 2 2 1 1 1 2 2 2 2 2 3 3 3 3 2 2
3 3 2 1 1 1 1 0 0 0 1 1 0 -1 -1 -1 -1 -0 0 0 1 1 1 1 1 1 2 2 1 1 1 1 2 2 3 3 3 3 3 2 2 2 2
3 3 2 1 1 1 1 1 1 1 2 2 1 -0 -1 -1 -1 -0 0 0 1 1 1 1 1 1 1 1 1 1 1 1 2 2 3 3 3 3 2 2 2 2 2
4 3 3 2 1 1 2 2 1 2 3 3 2 1 0 -1 -1 -0 0 0 0 0 1 1 1 1 1 1 2 2 2 2 2 2 2 2 2 2 2 2 1 1 2
4 4 3 3 2 2 2 2 2 2 3 3 3 2 1 0 0 0 0 0 0 1 1 1 1 2 3 3 3 3 3 3 2 2 2 3 3 3 3 2 2 2 2
5 4 4 3 3 2 2 2 2 2 2 3 4 4 3 2 1 1 1 1 1 2 2 2 2 3 4 4 4 4 4 4 4 4 4 5 5 5 5 4 4 4 4
5 4 4 4 3 2 1 1 1 1 2 2 3 4 4 3 3 3 2 2 3 3 3 3 3 4 4 4 4 4 4 4 5 5 5 5 5 5 5 5 5 5 5
4 4 4 4 3 2 1 1 1 1 1 2 2 3 4 5 5 5 4 4 4 4 4 4 4 5 5 4 3 3 3 3 5 5 5 4 4 4 4 5 5 6 6
4 4 4 4 3 2 1 1 1 1 1 1 2 3 4 5 6 7 7 6 5 6 6 6 6 7 6 5 4 4 4 5 5 5 5 4 4 4 4 4 5 6 7
3 3 4 4 3 2 1 1 2 2 2 2 2 3 3 4 6 8 9 8 7 7 7 7 7 7 7 6 6 6 7 7 6 5 4 4 4 4 4 4 5 7 8
3 3 3 4 3 2 2 2 2 2 2 2 3 3 3 4 5 7 9 9 7 6 6 7 7 7 7 7 8 7 7 6 5 4 4 3 3 3 4 6 8 9 10
3 3 3 3 3 2 2 2 2 2 2 3 3 3 3 4 4 6 9 9 7 6 5 5 6 6 7 7 7 6 5 5 4 3 3 3 4 5 8 10 11 12 13
2 2 3 3 3 3 2 2 2 2 2 3 3 3 4 4 4 5 8 9 8 6 5 5 5 6 6 5 4 4 4 4 3 3 3 4 6 9 11 13 13 14 14
1 2 2 3 3 3 3 2 2 2 2 3 4 4 4 4 4 5 6 7 7 6 5 5 5 5 4 3 3 3 3 3 3 3 5 7 10 12 13 14 14 14 14
0 1 2 2 2 3 3 2 2 2 3 3 4 4 4 4 4 4 5 5 6 6 5 6 6 4 3 3 2 3 3 3 3 5 8 10 11 13 13 14 14 14 14
-1 0 1 1 2 2 2 2 2 2 2 3 3 4 4 4 4 4 4 4 4 5 5 6 5 4 3 2 2 2 2 3 5 8 10 12 13 13 14 14 14 14 14
-1 -1 -0 0 0 1 1 1 2 2 2 2 3 3 4 4 4 4 4 4 4 4 5 5 5 4 3 2 2 2 2 3 6 9 11 13 14 14 14 14 14 15 15
-1 -1 -1 -1 -0 0 1 1 1 1 1 2 2 2 3 3 4 4 4 4 4 5 5 5 4 3 2 2 2 2 3 5 8 11 13 14 14 14 14 14 15 15 14
-1 -1 -1 -1 -1 -1 -0 0 0 1 1 1 1 1 2 2 3 3 4 4 4 5 5 5 4 3 2 3 3 5 6 8 10 12 14 14 14 14 14 14 14 14 14
-1 -1 -1 -2 -2 -2 -1 -1 -0 0 0 1 1 1 1 2 2 3 3 4 4 5 5 5 4 4 3 5 7 9 9 10 12 14 14 14 15 15 15 14 14 13 13
-2 -1 -2 -2 -2 -2 -2 -2 -1 -1 -1 -0 0 1 1 1 2 2 3 4 5 5 5 5 5 5 6 8 10 11 11 12 13 14 14 15 15 15 15 14 13 13 13
-2 -2 -2 -2 -2 -2 -2 -2 -2 -2 -1 -1 -0 0 1 1 1 2 3 4 5 5 5 5 5 6 8 10 11 11 11 13 14 15 15 15 15 15 14 13 13 13 12